sat.trackr.live / text

‹ back to catalog

STARLINK-4742

NORAD 53795 · 2022-111Y

PAYLOAD ACTIVE UNKNOWN

§ Identity

Operator
Country
US
Launch date
2022-09-11
Launch site
AFETR
Launch vehicle
Mass (kg)
RCS (m²)

Purposes: comms

External: N2YO · Heavens-Above · Gunter

§ Orbital elements

Epoch: 2026-09-20T06:46:09.331680Z

Period
94.01 min
Inclination
53.1589°
Eccentricity
0.0001084
Mean motion
15.31691637 rev/d
Perigee alt
470.0 km
Apogee alt
471.5 km
Semi-major
6,848.9 km
B*
7.9563e-5
RAAN
107.9401°
Arg perigee
91.4837°
Mean anomaly
268.6289°
Rev number
22,323

§ Raw data

STARLINK-47421 53795U 22111Y   26263.28205245  .00002104  00000+0  79563-4 0  99932 53795  53.1589 107.9401 0001084  91.4837 268.6289 15.31691637223234

JSON: /api/v1/satellites/53795 · /tle

For live sub-satellite position, see the globe view (requires WebGL).

§ Visibility from observer

Set your observer location to see the next 7 days of passes ≥ 10°. The values pass through the URL so the page stays shareable.

No JS? Fill the form by hand. The geolocation button needs JavaScript.